Weather Roundup
Issued by NWS Chicago, IL

Home | Current Version | Previous Version | Text Only | Print | Product List | Glossary Off
Versions: 1 2 3 4 5 6 7 8 9 10 11 12 13 14 15 16 17 18 19 20 21 22 23 24 25 26 27 28 29 30 31 32 33 34 35 36 37 38 39 40 41 42 43 44 45 46 47 48 49 50

000
NZUS59 KLOT 200603
HRRLOT

CHICAGO AREA WEATHER ROUNDUP
NATIONAL WEATHER SERVICE CHICAGO/ROMEOVILLE IL
100 AM CDT FRI APR 20 2018

NOTE: "FAIR" INDICATES FEW OR NO CLOUDS BELOW 12,000 FEET WITH NO
SIGNIFICANT WEATHER AND/OR OBSTRUCTIONS TO VISIBILITY.

* THESE STATIONS ARE NOT UNDER NWS QUALITY CONTROL. THEY ALSO MAY NOT
  REPORT WEATHER SUCH AS PRECIPITATION OR FOG.

ILZ005-006-012>014-019>023-200700-
NORTHEAST ILLINOIS

CITY           SKY/WX    TMP DP  RH WIND       PRES   REMARKS
OHARE            N/A     39  23  52 W5        30.43S
6HR MIN TEMP:  38; 6HR MAX TEMP:  49;

MIDWAY           N/A     39  24  55 CALM      30.44S
6HR MIN TEMP:  38; 6HR MAX TEMP:  50;

AURORA           N/A     28  25  88 CALM      30.44S
6HR MIN TEMP:  28; 6HR MAX TEMP:  48;

LANSING*         N/A     30  29  94 CALM      30.44F
JOLIET*          N/A     33  27  79 CALM      30.45S
WAUKEGAN         N/A     35  25  66 W6        30.42  WCI  30
6HR MIN TEMP:  35; 6HR MAX TEMP:  46;

DUPAGE AIRPORT   N/A     32  26  78 CALM      30.43S
6HR MIN TEMP:  31; 6HR MAX TEMP:  49;

WHEELING         N/A     34  25  69 CALM      30.45S
6HR MIN TEMP:  34; 6HR MAX TEMP:  49;

KANKAKEE*        N/A     32  24  72 W3        30.45S
MORRIS*          N/A     33  25  72 CALM      30.44S
LEWIS AIRPORT*   N/A     36  24  61 CALM      30.45R
$$

WIZ051-052-058>065-066-070>072-200700-
SOUTHEAST WISCONSIN

CITY           SKY/WX    TMP DP  RH WIND       PRES   REMARKS
MILWAUKEE        N/A     40  26  57 W8        30.42S
6HR MIN TEMP:  40; 6HR MAX TEMP:  49;

KENOSHA*         N/A     36  25  64 NW6       30.42S
RACINE*          N/A     38  25  59 W7        30.44S
BURLINGTON       N/A     30  23  75 SW3       30.44R
WAUKESHA         N/A     32  23  69 W6        30.44R WCI  26
WEST BEND        N/A     36  25  64 CALM      30.42S
$$

INZ001>003-010>013-019-020-200700-
NORTHWEST INDIANA

CITY           SKY/WX    TMP DP  RH WIND       PRES   REMARKS
GARY*            N/A     32  29  91 CALM      30.44F
6HR MIN TEMP:  32; 6HR MAX TEMP:  42;

MICHIGAN CITY* NOT AVBL
RENSSELAER*    NOT AVBL
VALPARAISO       N/A     40  26  57 CALM      30.43S
$$

LMZ740>746-200700-
SOUTHERN LAKE MICHIGAN

STATION/POSITION TIME  SKY/WX   TEMP WIND        PRES    VSBY
                                AIR  DIR/SP/G
                 (UTC)          (F)  (DEG/KT/KT) (MB)    (MI)
HARRISON CRIB    0540            44  290/  8/ 10   N/A
BURNHAM HARBOR   0600            43  250/  6/  9   N/A
CALUMET HARBOR   0530            41  240/  3/  4 1030.0R
BURNS HARBOR     0540            41  280/  4/  5 1031.2S
MICHIGAN CITY    0540            39  290/  7/  8   N/A
$$

ABBREVIATIONS USED IN REMARKS
   TC - TEMPERATURE IN CELSIUS
  WCI - WIND CHILL INDEX
   HX - HEAT INDEX
  VSB - VISIBILITY
$$




USA.gov is the U.S. government's official web portal to all federal, state and local government web resources and services.